Simultaneous Nadir Overpasses (SNOs) Predictions

Prediction of SNOs between NOAA-20 and METOP-C Satellite Orbit:

Table of predicted SNOs for the next 14.0 days since TLE Epoch: 12/3/2019
Index Date (NOAA-20) Time (NOAA-20) Lat,Lon (NOAA-20) SZA (NOAA-20 ) Date (METOP-C) Time (METOP-C) Lat,Lon (METOP-C) SZA (METOP-C ) Distance(km) Time Diff (sec)
1 12/17/2019 05:10:37 -73.54, -87.63 83.03 12/17/2019 05:11:43 -73.48, -84.53 83.20 98.02 66
2 12/17/2019 06:01:19 73.35, 80.12 96.77 12/17/2019 06:02:27 73.30, 82.38 96.63 72.55 68
3 12/17/2019 06:52:01 -73.25,-112.34 83.35 12/17/2019 06:53:10 -73.21,-110.48 83.45 59.87 69
4 12/17/2019 07:42:43 73.05, 55.39 96.45 12/17/2019 07:43:54 73.02, 56.44 96.37 34.23 71
5 12/17/2019 08:33:25 -72.95,-137.07 83.66 12/17/2019 08:34:38 -72.89,-136.51 83.76 19.62 73
6 12/17/2019 09:24:08 72.81, 30.55 96.19 12/17/2019 09:25:20 72.80, 30.63 96.17 2.99 72
7 12/17/2019 10:14:51 -72.76,-162.03 83.87 12/17/2019 10:16:02 -72.76,-162.11 83.87 2.72 71
8 12/17/2019 11:05:37 72.76, 5.27 96.15 12/17/2019 11:06:42 72.77, 5.24 96.15 1.45 65
9 12/17/2019 11:56:21 -72.76, 172.58 83.86 12/17/2019 11:57:23 -72.79, 172.61 83.84 3.27 62
10 12/17/2019 12:47:07 72.77, -20.12 96.15 12/17/2019 12:48:04 72.75, -20.15 96.13 2.16 57
11 12/17/2019 13:37:51 -72.77, 147.20 83.85 12/17/2019 13:38:45 -72.77, 147.22 83.86 0.75 54
12 12/17/2019 14:28:37 72.77, -45.51 96.16 12/17/2019 14:29:25 72.78, -45.43 96.16 2.61 48
13 12/17/2019 15:19:21 -72.77, 121.81 83.84 12/17/2019 15:20:07 -72.74, 121.83 83.88 3.18 46
14 12/17/2019 16:10:06 72.73, -70.79 96.12 12/17/2019 16:10:47 72.75, -70.82 96.14 3.13 41
15 12/17/2019 17:00:50 -72.73, 96.53 83.89 12/17/2019 17:01:29 -72.72, 96.45 83.89 2.85 39
16 12/17/2019 17:51:36 72.73, -96.17 96.13 12/17/2019 17:52:09 72.73, -96.20 96.12 1.02 33
17 12/17/2019 18:42:20 -72.73, 71.14 83.88 12/17/2019 18:42:50 -72.75, 71.16 83.87 1.99 30




NCC Satellite Simultaneous Nadir Overpasses (SNOs) Prediction Service
